Regional Weather Roundup
Issued by NWS Bismarck, ND

Home | Current Version | Previous Version | Text Only | Print | Product List | Glossary On
Versions: 1 2 3 4 5 6 7 8 9 10 11 12 13 14 15 16 17 18 19 20 21 22 23 24 25 26 27 28 29 30 31 32 33 34 35 36 37 38 39 40 41 42 43 44 45 46 47 48 49 50
000
ASUS43 KBIS 040920
RWRBIS

NWR BROADCAST TEXT
NATIONAL WEATHER SERVICE BISMARCK ND
300 AM CST WED MAR 04 2015

NOTE: "FAIR" INDICATES FEW OR NO CLOUDS BELOW 12,000 FEET WITH NO
SIGNIFICANT WEATHER AND/OR OBSTRUCTIONS TO VISIBILITY.


CITY           SKY/WX    TMP DP  RH WIND       PRES   REMARKS
WILLISTON      CLEAR     -7 -14  71 NW14      30.17R WCI -28
MINOT          CLEAR     -6 -14  68 W16       30.09R WCI -28
MINOT AFB      CLEAR     -8 -14  72 NW17      30.08R WCI -31
BISMARCK       PTCLDY     3  -8  60 NW20G35   30.10R WCI -18
DICKINSON      CLEAR     -1  -8  72 NW14      30.04R WCI -20
GARRISON         N/A     -6 -12  75 NW15      30.08R WCI -27
HETTINGER ARPT CLEAR     -4  -9  79 W8        30.06R WCI -19
JAMESTOWN      LGT SNOW   0  -6  76 NW14      30.05R WCI -19
BEACH          CLOUDY     0  -6  78 NW13      30.11R WCI -18
CARRINGTON     FAIR      -2  -8  78 MISG      30.06R
CROSBY         FAIR      -9 -17  70 NW16G23   30.15R WCI -32
HARVEY         FAIR      -4  -9  77 NW10      30.06R WCI -21
HAZEN          FAIR       0  -8  71 NW9       30.12R WCI -16
LINTON         PTSUNNY    1   0  92 W5        30.07S WCI  -8
MANDAN         FAIR       1  -8  66 NW16G26   30.07R WCI -18
OAKES            N/A      0  -8  71 W7        30.09S WCI -13
RUGBY          FAIR      -9 -17  70 NW15      30.05S WCI -31
TIOGA          FAIR     -11 -13  92 W12       30.12R WCI -31
WATFORD CITY   FAIR      -4 -11  71 NW12      30.12R WCI -22
$$

CITY           SKY/WX    TMP DP  RH WIND       PRES   REMARKS
GRAND FORKS    CLEAR     -6 -13  71 W8        30.06R WCI -21
GRAND FORKS AF CLEAR     -4 -14  62 NW10      30.06R WCI -21
DEVILS LAKE    CLEAR     -8 -17  65 W13       30.03R WCI -28
FARGO          CLEAR     -3 -11  68 W9        30.09R WCI -19
CANDO          FAIR     -13 -18  77 NW12      30.04R WCI -33
CAVALIER       PTSUNNY   -4 -11  71 N13G18    30.06R WCI -23
GWINNER        SUNNY      0  -9  65 W8        30.09S WCI -15
ROLLA          FAIR      -9 -17  70 NW16G23   30.00R WCI -32
WALHALLA         N/A     -6 -13  71 NW12      30.07R WCI -24
$$

CITY           SKY/WX    TMP DP  RH WIND       PRES   REMARKS
ABERDEEN       MOCLDY    -8 -13  78 W6        30.12F WCI -21
MOBRIDGE       PTCLDY     3  -3  76 W5        30.04S WCI  -6
BUFFALO          N/A      6  -1  73 NW18      29.97R WCI -13
RAPID CITY     CLEAR      1  -7  68 W3        30.08R
GLASGOW        CLEAR     -2  -9  72 NW7       30.21R WCI -15
SIDNEY         CLEAR     -4 -11  71 W6        30.22R WCI -16
WOLF POINT     CLEAR     -3 -10  72 W7        30.23R WCI -16
MILES CITY     CLEAR      4   1  88 NW5       30.16R WCI  -5
BAKER          CLEAR      3  -7  63 NW15      30.07R WCI -16
$$

CITY           SKY/WX    TMP DP  RH WIND       PRES   REMARKS
BILLINGS       MOCLDY    11  -5  48 NW15      30.12S WCI  -5
GREAT FALLS    CLOUDY    10   2  69 SW6       30.17S WCI   0
REGINA         CLEAR    -18 -24  76 NW10      30.19R WCI -39
ESTEVAN        CLEAR    -15 -22  70 NW17      30.13R WCI -40
$$




USA.gov is the U.S. government's official web portal to all federal, state and local government web resources and services.